www.pogodaiklimat.ru

Погода и климат >> Архив погоды >> Вьетнам >> Хайфон


ПОГОДА в Хайфоне

  • Прогноз погоды в Хайфоне
  • Монитор погоды в Хайфоне

АРХИВ ПОГОДЫ в Хайфоне

Время (UTC), дата Ветер
(напр.,м/с)
 
Видим.   Явления Облачность Т
(С)
Тd
(С)
f
(%)
Тe
(С)
Тes
(С)
Комфортность P
(гПа)
Po
(гПа)
Тmin
(С)
Tmax
(С)
R
(мм)
R24
(мм)
S
(см)
21 8.09 ЮВ 2 10 км 5/5 300 м
[Cu Sc]
+28.5 +26.6 89 +44 +44 опасность
перегрева
1001.4 1000.5
00 9.09 ЮВ 2 10 км 10/10
[Cu Sc]
+28.8 +27.1 91 +46 +46 опасность
перегрева
1002.8 1001.9 +27.6 0.0
03 9.09 В 2 10 км 9/6 1000 м
[Sc Cs]
+32.2 +28.1 79 +53 +58 опасность
перегрева
1003.1 1002.2
06 9.09 ЮЗ 2 10 км 9/5 600 м
[Cu med, cong Cs]
+35.4 +25.6 57 +50 +58 опасность
перегрева
1000.8 999.9 0.0
09 9.09 Ю 2 10 км 10/10 600 м
[Cb cap]
+33.4 +26.4 67 +50 +50 опасность
перегрева
999.5 998.6
12 9.09 СВ 3 10 км гроза, ливневой дождь 10/10 300 м
[Cb cap]
+29.4 +26.6 85 +45 +45 опасность
перегрева
1001.9 1001.0 +35.7 4
15 9.09 ЮВ 1 10 км зарница {гроза, дождь} 8/8 300 м
[Cb cap]
+28.7 +26.3 87 +44 +44 опасность
перегрева
1003.3 1002.4
18 9.09 Ю 1 10 км {гроза, дождь} 10/10 1000 м
[Sc]
+29.1 +27.4 91 +47 +47 опасность
перегрева
1002.2 1001.3 0.2
21 9.09 СВ 2 10 км слаб. дождь 10/10 300 м
[Cu Sc]
+29.2 +27.8 92 +48 +48 опасность
перегрева
1002.0 1001.1
00 10.09 С 3 10 км гроза, ливневой дождь туман 10/10
[Cb cap]
+26.2 +24.0 88 +36 +36 очень
душно
1004.3 1003.4 +26.2 3
03 10.09 ЮВ 3 10 км гроза, ливневой дождь 10/8 300 м
[Cb cap As op]
+26.2 +24.7 91 +37 +37 очень
душно
1006.8 1005.9
06 10.09 СЗ 2 10 км в посл. час дождь {гроза} 10/8
[Cu Sc As op]
+26.5 +24.3 88 +37 +38 очень
душно
1005.4 1004.5 3
09 10.09 СЗ 1 10 км 10/10 300 м
[Cu Sc]
+27.2 +24.4 85 +38 +38 очень
душно
1004.7 1003.8
12 10.09 штиль 0 10 км 10/10
[Cu Sc]
+27.2 +24.9 87 +39 +39 очень
душно
1007.2 1006.3 +27.2 3
15 10.09 С 1 10 км 10/10 300 м
[Cu Sc]
+27.2 +25.0 88 +39 +39 очень
душно
1009.5 1008.6
18 10.09 С 1 10 км 10/10 300 м
[Cu Sc]
+26.8 +24.8 89 +38 +38 очень
душно
1009.4 1008.5
21 10.09 штиль 0 10 км гроза без осадков 10/10 300 м
[Cb cap]
+26.3 +24.4 89 +37 +37 очень
душно
1008.9 1008.0
00 11.09 З 1 10 км {гроза, дождь} 9/9
[Cb cap]
+26.8 +25.0 90 +39 +39 очень
душно
1010.8 1009.9 +26.2 0.5
03 11.09 В 2 10 км {дождь} 9/9 600 м
[Cu Sc]
+30.1 +26.0 79 +45 +47 опасность
перегрева
1011.9 1011.0
06 11.09 В 1 10 км гроза, ливневой дождь туман 9/9 300 м
[Cb cap]
+27.8 +25.2 86 +40 +43 очень
душно
1009.8 1008.9 7
09 11.09 В 3 10 км {гроза, ливн. осадки} 9/8 600 м
[Cb cap Ci fib]
+30.5 +26.3 78 +46 +47 опасность
перегрева
1008.5 1007.6
12 11.09 С 3 10 км {гроза, ливн. осадки} 9/9 300 м
[Cb cap]
+28.4 +25.2 83 +41 +41 опасность
перегрева
1010.2 1009.3 +32.0 7
15 11.09 СВ 1 10 км в посл. час ливневой дождь 3/3 600 м
[Cb cap]
+27.0 +25.4 91 +39 +39 очень
душно
1012.2 1011.3
18 11.09 З 1 10 км в посл. час дождь {ливн. осадки} 9/9 1000 м
[Sc]
+26.5 +25.0 91 +38 +38 очень
душно
1011.4 1010.5 2
21 11.09 штиль 0 10 км 5/5 1000 м
[Cu Sc]
+26.3 +24.8 91 +37 +37 очень
душно
1010.5 1009.6
00 12.09 З 1 10 км 10/10
[Cu Sc]
+26.7 +25.4 93 +39 +39 очень
душно
1012.2 1011.3 +25.8 2
03 12.09 штиль 0 10 км 9/9 300 м
[Cu Sc]
+31.4 +25.5 71 +46 +48 опасность
перегрева
1012.3 1011.4
06 12.09 З 2 10 км {ливн. осадки} 9/5 300 м
[Cb calv Cs]
+32.7 +25.1 64 +46 +54 опасность
перегрева
1009.7 1008.8 8
09 12.09 ЮВ 1 10 км 8/8 600 м
[Cb cap]
+33.3 +24.5 60 +46 +47 опасность
перегрева
1007.2 1006.3
12 12.09 ЮВ 2 10 км ясно +29.8 +26.1 81 +45 +45 опасность
перегрева
1008.7 1007.8 +33.5 8
15 12.09 ЮВ 3 10 км ясно +28.5 +25.6 84 +42 +42 опасность
перегрева
1010.4 1009.5
18 12.09 В 2 10 км ясно +27.2 +25.6 91 +40 +40 очень
душно
1009.6 1008.7
21 12.09 штиль 0 10 км ясно +26.5 +25.3 93 +38 +38 очень
душно
1008.5 1007.6
00 13.09 штиль 0 4000 м ясно +26.8 +25.3 92 +39 +41 очень
душно
1010.0 1009.1 +26.5
03 13.09 ЮЗ 2 10 км 8/8 300 м
[Cu Sc]
+30.7 +24.5 70 +43 +46 опасность
перегрева
1010.5 1009.6
06 13.09 штиль 0 10 км 9/9 300 м
[Cb cap]
+32.7 +23.3 58 +43 +46 опасность
перегрева
1008.2 1007.3
09 13.09 штиль 0 10 км 10/10 300 м
[Cb cap]
+32.8 +22.9 56 +43 +43 опасность
перегрева
1006.5 1005.6
12 13.09 ЮВ 2 10 км ясно +30.0 +24.5 72 +42 +42 опасность
перегрева
1006.9 1006.0 +34.0
15 13.09 ЮВ 2 10 км ясно +28.3 +25.0 82 +41 +41 опасность
перегрева
1009.2 1008.3
18 13.09 штиль 0 10 км ясно +26.8 +25.2 91 +39 +39 очень
душно
1008.8 1007.9
21 13.09 штиль 0 10 км ясно +25.8 +24.2 91 +36 +36 очень
душно
1008.4 1007.5
00 14.09 штиль 0 4000 м дымка ясно +26.3 +24.7 91 +37 +39 очень
душно
1009.5 1008.6 +25.5
03 14.09 СЗ 2 10 км 6/1 600 м
[Cu med, cong Cs]
+31.4 +22.6 60 +41 +53 опасность
перегрева
1010.7 1009.8
06 14.09 З 3 10 км 8/3 600 м
[Cu med, cong Cs]
+34.0 +20.8 46 +41 +50 опасность
перегрева
1008.6 1007.7
09 14.09 штиль 0 10 км ясно +34.8 +26.4 62 +51 +58 опасность
перегрева
1006.1 1005.2
12 14.09 штиль 0 10 км ясно +31.7 +23.0 60 +42 +42 опасность
перегрева
1007.1 1006.2 +35.3
15 14.09 штиль 0 10 км ясно +28.8 +23.9 75 +40 +40 очень
душно
1009.3 1008.4
18 14.09 штиль 0 10 км ясно +27.6 +24.8 85 +39 +39 очень
душно
1008.3 1007.4
21 14.09 Ю 1 10 км ясно +27.2 +24.9 87 +39 +39 очень
душно
1007.9 1007.0
00 15.09 З 2 10 км ясно +27.2 +25.2 89 +39 +41 очень
душно
1009.2 1008.3 +26.5
03 15.09 СЗ 1 10 км 5/1 600 м
[Cu med, cong Cs]
+31.6 +25.1 69 +46 +60 опасность
перегрева
1010.0 1009.1
06 15.09 З 1 10 км 8/3 600 м
[Cu med, cong Cs]
+33.8 +21.6 49 +42 +55 опасность
перегрева
1007.6 1006.7
09 15.09 ЮВ 1 10 км 8/4 600 м
[Cu Sc Cs]
+35.1 +22.1 47 +44 +47 опасность
перегрева
1005.5 1004.6
12 15.09 ЮВ 2 10 км ясно +31.2 +24.3 67 +43 +43 опасность
перегрева
1006.4 1005.5 +35.4
15 15.09 ЮВ 2 10 км ясно +29.4 +25.1 78 +43 +43 опасность
перегрева
1008.4 1007.5
18 15.09 ЮВ 1 10 км ясно +28.6 +25.2 82 +42 +42 опасность
перегрева
1008.0 1007.1

 

Местоположение метеостанции Хайфон (Вьетнам): широта 20.97 долгота 105.77 высота над уровнем моря 8 м.

В архиве по умолчанию представлена погода в Хайфоне за последнюю неделю. Архивные данные за месяц целиком и за предыдущие месяцы, начиная с января 2011 года, Вы можете получить, выбрав интересующий диапазон дат из раскрывающегося списка и нажав кнопку "Ввод!".


*Определитесь, кто Вы:
робот инопланетянин человек

Внимание! Время в таблицах - всемирное. Для получения местного времени необходимо прибавить поправку, которая равна 7 ч.

Смотрите также архив погоды в соседних городах и на ближайших метеорологических станциях:

Погода в Ханое (Вьетнам) (7 км)
Погода в Намдине (Вьетнам) (72 км)
Погода в Пхульене (Вьетнам) (91 км)
Погода в Баккане (Вьетнам) (131 км)
Погода в Тханьхоа (Вьетнам) (136 км)
Погода в Лангсоне (Вьетнам) (140 км)
Погода во Вьенгсае (Лаос) (172 км)
Погода в Лончжоу (Гуанси-Чжуанский автономный район, Китай) (186 км)
Погода в Самныа (Лаос) (187 км)
Погода в Каобанге (Вьетнам) (195 км)

Пояснения к столбцам:

Ветер - указаны скорость ветра в м/с - средняя за 10 мин, порывы в срок и между сроками (в фигурных скобках) и направление, откуда дует ветер: С - северный, СВ - северо-восточный, В - восточный, ЮВ - юго-восточный, Ю - южный, ЮЗ - юго-западный, З - западный, СЗ - северо-западный.
Видимость - горизонтальная дальность видимости в метрах или километрах. При видимости от 1 до 10 км при отсутствии осадков обычно наблюдается дымка, при ухудшении видимости до 1 км и менее - туман. В сухую погоду видимость может ухудшаться дымом, пылью или мглою.
Явления - указаны атмосферные явления, наблюдавшиеся в срок или в последний час перед сроком; фигурными скобками обозначены явления, наблюдавшиеся между сроками (за 1-3 часа до срока); квадратными скобками обозначены град или гололедные отложения с указанием их диаметра в мм.
Облачность - указаны через наклонную черту общая и нижняя облачность в баллах и высота нижней границы облаков в метрах; квадратными скобками обозначены формы облаков: Ci - перистые, Cs - перисто-слоистые, Cc - перисто-кучевые, Ac - высококучевые, As - высокослоистые, Sc - слоисто-кучевые, Ns - слоисто-дождевые, Cu - кучевые, Cb - кучево-дождевые. Подробнее классификацию облаков см. в Атласе облаков (PDF).
T - Температура воздуха - температура, измеренная на высоте 2 м над землей.
Td - Температура точки росы - температура, при понижении до которой содержащийся в воздухе водяной пар достигнет насыщения.
f - Относительная влажность воздуха - влажноcть воздуха, измеренная на высоте 2 м над землей.
Te - Эффективная температура - температура, которую ощущает одетый по сезону человек в тени. Характеристика душности погоды. При расчете учитывается влияние влажности воздуха и скорости ветра на теплоощущения человека.
Tes - Эффективная температура на солнце - температура, которую ощущает человек, с поправкой на солнечный нагрев. Характеристика знойности погоды. Зависит от высоты солнца над горизонтом, облачности и скорости ветра. Ночью, в пасмурную погоду, а также при ветре 12 м/с и более поправка равна нулю.
P - Атмосферное давление - приведенное к уровню моря атмосферное давление.
Po - Атмосферное давление - измеренное на уровне метеостанции атмосферное давление.
Tmin - Минимальная температура - минимум температуры воздуха на высоте 2 м над землей.
Tmax - Максимальная температура - максимум температуры воздуха на высоте 2 м над землей.
R - Количество осадков - Количество выпавших осадков за период времени, мм. При наведении курсора мыши на число - период времени, за который выпало указанное количество осадков.
R24 - Количество осадков - Количество выпавших осадков за 24 часа, мм.
S - Снежный покров - Высота снежного покрова, см. При наведении курсора мыши на число - состояние снежного покрова и степень покрытия местности в баллах.